QPF
0.00 0.00 0.00 0.00 0.00 0.00 0.00 0.00 0.01 0.00 0.00 0.00 0.00 0.01 0.02 0.04 0.07 0.07 0.05 0.05 0.05 0.06 0.07 0.09 0.10 0.09 0.09 0.09 0.10 0.09 0.09 0.08 0.07 0.06 0.05 0.02 0.01 0.01
0.00 0.00 0.00 0.00 0.00 0.00 0.00 0.00 0.01 0.01 0.00 0.00 0.00 0.00 0.01 0.03 0.05 0.07 0.07 0.06 0.04 0.04 0.05 0.06 0.07 0.08 0.09 0.08 0.08 0.08 0.08 0.07 0.06 0.05 0.05 0.03 0.02 0.02
0.00 0.00 0.00 0.00 0.00 0.00 0.01 0.00 0.00 0.01 0.00 0.00 0.00 0.00 0.00 0.01 0.03 0.03 0.04 0.05 0.04 0.03 0.03 0.05 0.05 0.05 0.07 0.08 0.08 0.08 0.09 0.08 0.07 0.05 0.04 0.04 0.03 0.02
0.00 0.00 0.00 0.00 0.00 0.00 0.00 0.01 0.01 0.01 0.01 0.00 0.00 0.00 0.00 0.00 0.00 0.01 0.01 0.02 0.02 0.03 0.03 0.03 0.04 0.05 0.05 0.05 0.06 0.06 0.08 0.08 0.08 0.05 0.05 0.04 0.03 0.03
0.00 0.00 0.00 0.00 0.00 0.00 0.00 0.00 0.01 0.01 0.01 0.01 0.00 0.00 0.00 0.00 0.00 0.00 0.01 0.01 0.01 0.02 0.02 0.03 0.03 0.04 0.05 0.04 0.05 0.05 0.06 0.07 0.07 0.07 0.05 0.04 0.04 0.03
0.00 0.00 0.00 0.00 0.00 0.00 0.00 0.00 0.01 0.01 0.01 0.01 0.00 0.00 0.00 0.00 0.00 0.00 0.01 0.01 0.01 0.01 0.03 0.03 0.03 0.04 0.04 0.05 0.05 0.05 0.05 0.04 0.05 0.06 0.06 0.04 0.04 0.04
0.00 0.00 0.00 0.00 0.00 0.00 0.00 0.00 0.01 0.01 0.01 0.01 0.00 0.00 0.00 0.00 0.00 0.00 0.01 0.01 0.01 0.02 0.02 0.03 0.03 0.04 0.04 0.04 0.05 0.06 0.05 0.05 0.05 0.06 0.06 0.06 0.04 0.03
0.00 0.00 0.00 0.00 0.00 0.00 0.00 0.00 0.00 0.00 0.01 0.01 0.00 0.00 0.00 0.00 0.00 0.00 0.01 0.01 0.01 0.02 0.02 0.02 0.04 0.04 0.04 0.04 0.05 0.05 0.05 0.06 0.06 0.06 0.06 0.07 0.07 0.05
0.00 0.00 0.00 0.00 0.00 0.00 0.00 0.00 0.00 0.00 0.00 0.00 0.00 0.00 0.00 0.00 0.00 0.00 0.01 0.01 0.02 0.02 0.04 0.03 0.04 0.05 0.05 0.05 0.06 0.07 0.06 0.07 0.07 0.08 0.08 0.06 0.06 0.06
0.00 0.00 0.00 0.00 0.00 0.01 0.01 0.01 0.01 0.01 0.01 0.01 0.00 0.00 0.00 0.00 0.00 0.01 0.01 0.01 0.02 0.03 0.05 0.06 0.06 0.06 0.07 0.07 0.08 0.08 0.07 0.07 0.07 0.09 0.09 0.08 0.06 0.05
0.00 0.00 0.00 0.00 0.00 0.01 0.01 0.01 0.01 0.01 0.01 0.01 0.00 0.00 0.00 0.00 0.00 0.02 0.02 0.02 0.03 0.04 0.05 0.06 0.07 0.08 0.09 0.09 0.10 0.12 0.12 0.10 0.09 0.08 0.09 0.10 0.09 0.08
0.00 0.01 0.01 0.00 0.00 0.00 0.01 0.01 0.01 0.00 0.00 0.00 0.00 0.00 0.00 0.00 0.01 0.04 0.05 0.04 0.04 0.06 0.07 0.07 0.08 0.10 0.10 0.11 0.11 0.11 0.12 0.13 0.12 0.10 0.09 0.09 0.10 0.09
0.00 0.01 0.00 0.00 0.00 0.00 0.00 0.00 0.00 0.00 0.01 0.01 0.00 0.00 0.00 0.00 0.01 0.05 0.06 0.04 0.04 0.05 0.07 0.08 0.09 0.10 0.10 0.09 0.12 0.14 0.13 0.12 0.12 0.12 0.10 0.09 0.08 0.07
0.00 0.00 0.00 0.00 0.00 0.00 0.00 0.00 0.00 0.00 0.00 0.00 0.00 0.00 0.00 0.00 0.01 0.05 0.07 0.05 0.05 0.07 0.07 0.09 0.10 0.10 0.09 0.08 0.10 0.13 0.15 0.14 0.12 0.12 0.12 0.12 0.09 0.08
0.00 0.00 0.00 0.00 0.00 0.00 0.00 0.00 0.00 0.00 0.00 0.00 0.00 0.00 0.00 0.01 0.02 0.05 0.07 0.05 0.06 0.08 0.09 0.10 0.13 0.13 0.11 0.08 0.09 0.11 0.13 0.15 0.14 0.13 0.13 0.12 0.09 0.07
0.00 0.00 0.00 0.00 0.00 0.00 0.00 0.00 0.00 0.00 0.00 0.00 0.00 0.00 0.01 0.01 0.02 0.03 0.05 0.04 0.06 0.08 0.10 0.10 0.11 0.15 0.14 0.11 0.09 0.10 0.11 0.12 0.14 0.14 0.15 0.14 0.11 0.09
0.00 0.00 0.00 0.00 0.00 0.00 0.00 0.00 0.00 0.00 0.00 0.00 0.00 0.00 0.01 0.02 0.03 0.03 0.05 0.04 0.05 0.06 0.08 0.11 0.12 0.13 0.13 0.12 0.12 0.11 0.11 0.12 0.13 0.15 0.16 0.17 0.16 0.13
0.00 0.00 0.00 0.00 0.00 0.00 0.00 0.00 0.01 0.01 0.01 0.01 0.01 0.01 0.01 0.02 0.04 0.05 0.07 0.06 0.04 0.05 0.06 0.08 0.13 0.15 0.15 0.13 0.12 0.11 0.11 0.13 0.14 0.17 0.18 0.16 0.16 0.14
0.00 0.00 0.00 0.00 0.00 0.00 0.01 0.01 0.01 0.01 0.02 0.02 0.02 0.01 0.02 0.02 0.03 0.05 0.08 0.07 0.06 0.05 0.06 0.08 0.11 0.13 0.12 0.11 0.11 0.11 0.13 0.13 0.16 0.19 0.19 0.16 0.14 0.13
0.00 0.01 0.01 0.01 0.01 0.01 0.01 0.01 0.01 0.02 0.02 0.02 0.02 0.02 0.02 0.03 0.04 0.05 0.06 0.07 0.07 0.06 0.07 0.08 0.09 0.12 0.10 0.10 0.11 0.10 0.12 0.17 0.16 0.18 0.21 0.20 0.19 0.17
0.01 0.01 0.02 0.02 0.02 0.02 0.01 0.01 0.02 0.02 0.02 0.02 0.02 0.02 0.02 0.02 0.03 0.04 0.05 0.07 0.08 0.08 0.07 0.07 0.07 0.10 0.13 0.13 0.14 0.13 0.12 0.15 0.21 0.19 0.20 0.21 0.24 0.23
0.02 0.01 0.02 0.02 0.02 0.02 0.02 0.02 0.01 0.02 0.02 0.02 0.02 0.02 0.02 0.02 0.02 0.04 0.04 0.05 0.07 0.07 0.07 0.07 0.08 0.10 0.11 0.11 0.11 0.12 0.14 0.15 0.20 0.27 0.26 0.21 0.18 0.16
0.02 0.02 0.02 0.02 0.01 0.02 0.02 0.02 0.02 0.02 0.02 0.02 0.02 0.02 0.02 0.02 0.02 0.03 0.04 0.06 0.08 0.09 0.08 0.08 0.09 0.09 0.09 0.11 0.13 0.14 0.15 0.14 0.15 0.18 0.21 0.21 0.17 0.15
MSLP
1016.83 1016.94 1017.04 1017.12 1017.14 1017.09 1016.97 1016.78 1016.54 1016.26 1015.97 1015.68 1015.38 1015.10 1014.82 1014.55 1014.30 1014.08 1013.90 1013.79 1013.76 1013.81 1013.94 1014.13 1014.37 1014.63 1014.89 1015.14 1015.38 1015.61 1015.85 1016.13 1016.46 1016.85 1017.29 1017.78 1018.28 1018.78
1016.47 1016.53 1016.59 1016.62 1016.61 1016.55 1016.43 1016.28 1016.09 1015.88 1015.66 1015.44 1015.21 1014.97 1014.72 1014.46 1014.21 1013.97 1013.77 1013.63 1013.57 1013.58 1013.68 1013.83 1014.02 1014.22 1014.42 1014.61 1014.78 1014.96 1015.15 1015.39 1015.70 1016.08 1016.53 1017.04 1017.56 1018.08
1016.09 1016.11 1016.12 1016.10 1016.05 1015.96 1015.85 1015.71 1015.57 1015.41 1015.26 1015.10 1014.93 1014.74 1014.53 1014.30 1014.06 1013.82 1013.62 1013.46 1013.38 1013.37 1013.42 1013.53 1013.66 1013.81 1013.94 1014.06 1014.16 1014.27 1014.42 1014.62 1014.90 1015.28 1015.74 1016.26 1016.82 1017.36
1015.70 1015.68 1015.64 1015.57 1015.48 1015.37 1015.24 1015.12 1015.00 1014.88 1014.78 1014.67 1014.56 1014.41 1014.24 1014.04 1013.82 1013.60 1013.41 1013.25 1013.16 1013.12 1013.14 1013.20 1013.28 1013.35 1013.41 1013.44 1013.47 1013.50 1013.59 1013.75 1014.01 1014.37 1014.84 1015.39 1015.98 1016.57
1015.28 1015.22 1015.14 1015.04 1014.91 1014.77 1014.64 1014.51 1014.40 1014.31 1014.24 1014.17 1014.09 1013.98 1013.84 1013.67 1013.49 1013.29 1013.11 1012.97 1012.87 1012.82 1012.81 1012.83 1012.84 1012.83 1012.80 1012.73 1012.67 1012.62 1012.63 1012.74 1012.97 1013.32 1013.80 1014.38 1015.02 1015.66
1014.82 1014.73 1014.63 1014.49 1014.34 1014.18 1014.03 1013.90 1013.79 1013.71 1013.64 1013.59 1013.53 1013.44 1013.33 1013.19 1013.04 1012.88 1012.73 1012.60 1012.52 1012.46 1012.43 1012.39 1012.33 1012.24 1012.11 1011.94 1011.77 1011.62 1011.55 1011.60 1011.78 1012.12 1012.61 1013.22 1013.91 1014.62
1014.30 1014.20 1014.08 1013.93 1013.77 1013.60 1013.43 1013.29 1013.17 1013.08 1013.01 1012.95 1012.88 1012.81 1012.72 1012.61 1012.48 1012.36 1012.25 1012.16 1012.09 1012.04 1011.98 1011.90 1011.78 1011.60 1011.37 1011.09 1010.81 1010.56 1010.40 1010.37 1010.51 1010.83 1011.32 1011.96 1012.70 1013.49
1013.73 1013.63 1013.51 1013.36 1013.19 1013.02 1012.84 1012.68 1012.54 1012.43 1012.34 1012.26 1012.18 1012.11 1012.03 1011.94 1011.85 1011.77 1011.71 1011.66 1011.62 1011.58 1011.51 1011.40 1011.22 1010.97 1010.64 1010.26 1009.87 1009.52 1009.27 1009.17 1009.25 1009.54 1010.03 1010.69 1011.48 1012.33
1013.14 1013.05 1012.93 1012.79 1012.63 1012.45 1012.26 1012.08 1011.92 1011.77 1011.65 1011.54 1011.45 1011.37 1011.29 1011.23 1011.17 1011.14 1011.13 1011.12 1011.13 1011.10 1011.04 1010.91 1010.69 1010.37 1009.97 1009.51 1009.03 1008.59 1008.26 1008.09 1008.12 1008.37 1008.84 1009.52 1010.34 1011.25
1012.55 1012.47 1012.37 1012.25 1012.09 1011.90 1011.71 1011.50 1011.31 1011.13 1010.97 1010.83 1010.71 1010.61 1010.54 1010.50 1010.48 1010.49 1010.53 1010.58 1010.62 1010.63 1010.58 1010.45 1010.21 1009.86 1009.41 1008.89 1008.35 1007.85 1007.46 1007.23 1007.21 1007.43 1007.88 1008.55 1009.38 1010.33
1012.01 1011.95 1011.86 1011.74 1011.59 1011.39 1011.18 1010.95 1010.72 1010.50 1010.30 1010.12 1009.98 1009.87 1009.80 1009.77 1009.79 1009.84 1009.93 1010.02 1010.11 1010.16 1010.14 1010.02 1009.78 1009.43 1008.96 1008.42 1007.86 1007.33 1006.90 1006.63 1006.58 1006.76 1007.18 1007.82 1008.65 1009.60
1011.53 1011.49 1011.41 1011.29 1011.13 1010.92 1010.68 1010.42 1010.15 1009.89 1009.64 1009.43 1009.26 1009.14 1009.07 1009.06 1009.10 1009.19 1009.32 1009.45 1009.58 1009.67 1009.68 1009.59 1009.38 1009.04 1008.60 1008.07 1007.52 1006.99 1006.56 1006.27 1006.19 1006.34 1006.72 1007.33 1008.13 1009.06
1011.12 1011.09 1011.02 1010.90 1010.71 1010.48 1010.20 1009.89 1009.58 1009.27 1008.99 1008.74 1008.55 1008.42 1008.35 1008.35 1008.41 1008.52 1008.67 1008.84 1009.00 1009.12 1009.17 1009.11 1008.94 1008.66 1008.26 1007.78 1007.27 1006.77 1006.36 1006.08 1005.99 1006.10 1006.44 1007.00 1007.74 1008.62
1010.77 1010.75 1010.67 1010.52 1010.31 1010.03 1009.70 1009.35 1008.98 1008.63 1008.31 1008.04 1007.82 1007.68 1007.61 1007.62 1007.69 1007.82 1007.98 1008.17 1008.35 1008.50 1008.57 1008.56 1008.45 1008.22 1007.89 1007.48 1007.03 1006.59 1006.22 1005.96 1005.86 1005.95 1006.24 1006.73 1007.40 1008.22
1010.43 1010.40 1010.31 1010.13 1009.88 1009.55 1009.17 1008.76 1008.34 1007.95 1007.59 1007.29 1007.07 1006.92 1006.85 1006.85 1006.93 1007.06 1007.24 1007.43 1007.62 1007.78 1007.89 1007.92 1007.85 1007.69 1007.44 1007.11 1006.74 1006.37 1006.05 1005.82 1005.71 1005.77 1006.01 1006.43 1007.02 1007.75
1010.06 1010.02 1009.90 1009.68 1009.38 1008.99 1008.56 1008.10 1007.64 1007.20 1006.82 1006.51 1006.27 1006.12 1006.05 1006.06 1006.14 1006.27 1006.44 1006.63 1006.83 1007.00 1007.13 1007.19 1007.18 1007.09 1006.91 1006.67 1006.38 1006.08 1005.80 1005.60 1005.49 1005.52 1005.70 1006.05 1006.55 1007.19
1009.60 1009.55 1009.40 1009.14 1008.78 1008.35 1007.86 1007.36 1006.86 1006.41 1006.01 1005.69 1005.46 1005.32 1005.25 1005.27 1005.34 1005.47 1005.63 1005.82 1006.01 1006.19 1006.33 1006.43 1006.46 1006.43 1006.33 1006.16 1005.94 1005.71 1005.48 1005.29 1005.18 1005.18 1005.31 1005.58 1005.99 1006.55
1009.02 1008.95 1008.77 1008.48 1008.08 1007.61 1007.09 1006.55 1006.04 1005.58 1005.19 1004.88 1004.66 1004.53 1004.48 1004.50 1004.58 1004.70 1004.86 1005.04 1005.23 1005.41 1005.56 1005.69 1005.76 1005.78 1005.74 1005.63 1005.48 1005.29 1005.10 1004.93 1004.82 1004.78 1004.86 1005.06 1005.40 1005.88
1008.32 1008.23 1008.02 1007.70 1007.28 1006.79 1006.26 1005.72 1005.22 1004.77 1004.40 1004.11 1003.92 1003.81 1003.78 1003.81 1003.89 1004.01 1004.17 1004.34 1004.52 1004.70 1004.87 1005.02 1005.12 1005.18 1005.19 1005.14 1005.03 1004.89 1004.72 1004.57 1004.44 1004.38 1004.41 1004.57 1004.85 1005.27
1007.51 1007.40 1007.18 1006.85 1006.43 1005.94 1005.42 1004.91 1004.43 1004.02 1003.68 1003.44 1003.27 1003.19 1003.18 1003.22 1003.30 1003.42 1003.57 1003.74 1003.91 1004.10 1004.27 1004.43 1004.57 1004.66 1004.70 1004.69 1004.63 1004.51 1004.37 1004.22 1004.10 1004.03 1004.04 1004.16 1004.41 1004.80
1006.62 1006.51 1006.28 1005.96 1005.56 1005.10 1004.63 1004.16 1003.74 1003.37 1003.09 1002.88 1002.75 1002.69 1002.69 1002.74 1002.82 1002.94 1003.07 1003.23 1003.40 1003.58 1003.76 1003.93 1004.08 1004.20 1004.27 1004.29 1004.25 1004.17 1004.05 1003.92 1003.80 1003.73 1003.74 1003.86 1004.10 1004.49
1005.71 1005.59 1005.39 1005.10 1004.74 1004.34 1003.92 1003.52 1003.16 1002.86 1002.62 1002.46 1002.36 1002.32 1002.32 1002.36 1002.43 1002.53 1002.65 1002.79 1002.94 1003.12 1003.29 1003.47 1003.63 1003.76 1003.85 1003.90 1003.88 1003.82 1003.73 1003.62 1003.53 1003.48 1003.51 1003.65 1003.92 1004.33
1004.82 1004.72 1004.55 1004.31 1004.01 1003.68 1003.34 1003.02 1002.73 1002.49 1002.30 1002.17 1002.09 1002.05 1002.04 1002.07 1002.11 1002.18 1002.27 1002.38 1002.51 1002.66 1002.83 1003.00 1003.16 1003.30 1003.41 1003.46 1003.47 1003.44 1003.38 1003.30 1003.25 1003.24 1003.31 1003.50 1003.81 1004.26
Thickness
5650 5648 5646 5645 5644 5643 5641 5640 5637 5636 5639 5647 5653 5661 5665 5669 5672 5675 5679 5682 5686 5689 5692 5695 5698 5700 5702 5705 5707 5708 5709 5710 5710 5711 5711 5712 5712 5712
5644 5641 5639 5638 5637 5636 5634 5633 5632 5631 5631 5637 5642 5648 5654 5658 5662 5666 5670 5674 5678 5682 5686 5689 5693 5696 5698 5701 5704 5706 5707 5708 5709 5710 5710 5711 5711 5712
5637 5634 5632 5630 5628 5627 5626 5625 5624 5624 5624 5628 5632 5639 5643 5647 5652 5656 5661 5666 5670 5675 5679 5683 5687 5690 5693 5696 5699 5702 5704 5705 5707 5708 5709 5710 5710 5711
5629 5626 5624 5622 5620 5618 5617 5616 5616 5616 5616 5618 5622 5627 5632 5637 5642 5646 5652 5657 5661 5667 5672 5676 5681 5684 5688 5692 5695 5698 5700 5702 5704 5706 5707 5708 5709 5709
5623 5619 5616 5613 5611 5609 5608 5608 5608 5610 5609 5610 5613 5616 5621 5626 5630 5635 5641 5646 5652 5658 5664 5669 5674 5678 5683 5687 5690 5693 5697 5699 5701 5703 5705 5706 5707 5708
5616 5612 5609 5606 5603 5601 5601 5600 5600 5600 5600 5601 5603 5606 5609 5615 5618 5622 5628 5635 5641 5649 5655 5661 5667 5672 5677 5681 5685 5689 5692 5695 5697 5699 5701 5703 5704 5706
5609 5605 5602 5600 5599 5596 5595 5593 5593 5592 5592 5592 5594 5596 5599 5602 5606 5611 5616 5622 5631 5638 5645 5652 5659 5664 5669 5674 5679 5684 5687 5690 5693 5695 5697 5699 5701 5703
5602 5599 5596 5594 5593 5592 5591 5590 5588 5586 5585 5585 5586 5587 5591 5594 5598 5602 5605 5610 5617 5628 5633 5641 5649 5655 5662 5668 5673 5678 5682 5685 5688 5691 5693 5696 5698 5699
5596 5592 5591 5590 5587 5585 5584 5584 5583 5583 5583 5581 5581 5583 5585 5588 5590 5593 5596 5600 5607 5616 5621 5630 5638 5646 5654 5661 5666 5672 5676 5680 5683 5686 5689 5692 5694 5696
5592 5588 5584 5582 5581 5579 5577 5577 5576 5576 5577 5577 5578 5580 5581 5583 5584 5587 5589 5594 5601 5606 5612 5618 5628 5636 5645 5652 5659 5664 5669 5674 5678 5681 5684 5687 5690 5692
5588 5584 5580 5577 5577 5575 5572 5570 5569 5569 5571 5572 5573 5574 5576 5577 5578 5578 5580 5584 5590 5597 5604 5610 5619 5625 5634 5642 5650 5656 5661 5666 5670 5675 5678 5681 5684 5685
5583 5580 5577 5574 5572 5570 5566 5563 5562 5562 5562 5563 5564 5566 5568 5570 5572 5573 5575 5577 5581 5588 5597 5602 5610 5615 5623 5632 5640 5646 5652 5657 5662 5667 5671 5674 5676 5677
5579 5576 5573 5571 5568 5565 5562 5558 5557 5556 5554 5554 5554 5557 5559 5562 5565 5568 5571 5573 5577 5582 5589 5594 5601 5607 5613 5620 5628 5636 5642 5648 5653 5658 5663 5667 5669 5673
5576 5573 5570 5567 5563 5560 5557 5555 5553 5550 5547 5546 5546 5548 5551 5554 5559 5562 5566 5570 5575 5580 5585 5588 5594 5599 5605 5611 5617 5625 5632 5638 5644 5650 5655 5658 5661 5666
5574 5570 5566 5562 5558 5555 5554 5551 5548 5544 5541 5540 5542 5544 5547 5550 5552 5556 5560 5565 5569 5575 5579 5583 5588 5593 5599 5605 5610 5616 5622 5629 5636 5642 5647 5651 5655 5659
5569 5565 5561 5557 5554 5552 5549 5547 5544 5541 5538 5538 5539 5541 5542 5543 5546 5550 5553 5557 5561 5568 5574 5579 5583 5588 5593 5599 5604 5610 5616 5621 5627 5633 5638 5643 5648 5653
5563 5557 5553 5550 5548 5546 5544 5543 5541 5538 5536 5536 5535 5536 5537 5538 5542 5545 5548 5551 5555 5561 5566 5572 5577 5582 5588 5593 5597 5604 5609 5614 5618 5624 5629 5634 5640 5646
5554 5549 5548 5546 5544 5543 5541 5540 5539 5537 5535 5534 5532 5532 5533 5535 5538 5541 5543 5546 5550 5555 5560 5565 5569 5574 5578 5585 5593 5598 5602 5607 5611 5615 5621 5626 5632 5638
5548 5546 5544 5543 5542 5541 5539 5538 5537 5536 5534 5532 5531 5531 5531 5533 5534 5537 5540 5543 5546 5550 5555 5559 5563 5567 5573 5580 5587 5592 5596 5600 5604 5608 5614 5620 5627 5631
5546 5545 5544 5543 5541 5539 5538 5537 5536 5535 5533 5531 5530 5530 5530 5531 5532 5535 5538 5541 5544 5546 5550 5554 5559 5564 5570 5575 5579 5585 5591 5595 5599 5603 5607 5612 5617 5621
5548 5545 5544 5543 5541 5540 5538 5537 5536 5534 5533 5531 5530 5530 5530 5530 5531 5534 5536 5538 5540 5543 5547 5551 5557 5561 5565 5568 5573 5579 5584 5590 5596 5599 5602 5604 5608 5612
5547 5545 5544 5543 5541 5539 5538 5536 5535 5534 5532 5531 5530 5530 5530 5530 5531 5532 5534 5536 5539 5542 5545 5549 5552 5555 5559 5564 5570 5575 5578 5581 5586 5591 5595 5602 5607 5610
5546 5545 5543 5542 5540 5539 5537 5536 5535 5533 5532 5531 5530 5530 5530 5530 5530 5531 5532 5534 5537 5540 5543 5545 5549 5552 5557 5561 5566 5569 5572 5575 5579 5582 5585 5592 5599 5605